Miscellaneous Local Product
Issued by NWS North Platte, NE

Home | Current Version | Previous Version | Graphics & Text | Print | Product List | Glossary On
Versions: 1 2 3 4 5 6 7 8 9 10 11 12 13 14 15 16 17 18 19 20 21 22 23 24 25 26 27 28 29 30 31 32 33 34 35 36 37 38 39 40 41 42 43 44 45 46 47 48 49 50
341
AXUS43 KLBF 250210
MISLBF


WESTERN AND NORTH CENTRAL NEBRASKA HOURLY WEATHER ROUNDUP
NATIONAL WEATHER SERVICE NORTH PLATTE NE
800 PM CST FRI FEB 24 2017

NOTE: "FAIR" INDICATES FEW OR NO CLOUDS BELOW 12,000 FEET WITH NO
SIGNIFICANT WEATHER AND/OR OBSTRUCTIONS TO VISIBILITY.

NOTE: STATIONS NOT REPORTING VARIABLES SUCH AS SKY/WEATHER OR
PRESSURE ARE PROVIDED BY RAWS AND APRS NETWORKS AND ARE NOT UNDER
NATIONAL WEATHER SERVICE QUALITY CONTROL.

...OBSERVATIONS IN AND NEAR THE EASTERN PANHANDLE OF NEBRASKA...

CITY           SKY/WX    TMP DP  RH WIND       PRES   REMARKS
PINE RIDGE     CLOUDY    12   9  87 SW3       30.07S
CHADRON        CLOUDY    11   7  84 CALM      30.08S
ALLIANCE       CLOUDY     6   4  91 W5        30.05R WCI  -3
SIDNEY         CLOUDY    13   9  84 W5        30.06R WCI   5
CRESCENT LAKE    N/A     16  15  94 NW6         N/A  WCI   8
$$

...OBSERVATIONS IN NORTHERN NEBRASKA AND FAR SOUTHERN SOUTH DAKOTA...

CITY           SKY/WX    TMP DP  RH WIND       PRES   REMARKS
WINNER         FAIR      20  12  71 NW6       30.11S WCI  12
VALENTINE      CLOUDY     5   1  83 W7        30.10R WCI  -7
THEDFORD       CLOUDY    11   8  85 W7        30.10S WCI   1
AINSWORTH      CLOUDY    17  13  85 NW7       30.09S WCI   7
O`NEILL        CLOUDY    24  16  73 NW18      30.07S WCI  10
ORD            CLEAR     21  13  71 NW15      30.08R WCI   8
BROKEN BOW     CLOUDY    19  12  74 NW13      30.09R WCI   6
VALENTINE NWR    N/A     16  12  84 NW10        N/A  WCI   4
BUTTE            N/A     22  15  75 NW13        N/A  WCI  10
HALSEY           N/A     16  10  76 W6          N/A  WCI   8
CHAMBERS         N/A     21  10  63 W5          N/A  WCI  15
EWING            N/A     23  18  81 NW16        N/A  WCI  10
$$

...OBSERVATIONS IN SOUTHWEST NEBRASKA AND FAR NORTHEAST COLORADO...

CITY           SKY/WX    TMP DP  RH WIND       PRES   REMARKS
HOLYOKE        FAIR      25  21  86 CALM      30.09R
IMPERIAL       CLOUDY    21  15  78 NW7       30.10R WCI  12
OGALLALA       CLOUDY    16  13  88 W3        30.10R
NORTH PLATTE   CLOUDY    15   7  70 NW7       30.11R WCI   5
MCCOOK         CLOUDY    19  13  77 N6        30.12R WCI  11
LEXINGTON      PTCLDY    17  11  78 NW8       30.11S WCI   6
STAPLETON        N/A     12   8  83 CALM        N/A
GOTHENBURG       N/A     16  10  75 NW5         N/A  WCI   9
CALLAWAY         N/A     13   9  84 N9          N/A  WCI   1
$$

...OBSERVATIONS IN CENTRAL LINCOLN COUNTY AREA...

CITY           SKY/WX    TMP DP  RH WIND       PRES   REMARKS
N.P. AIRPORT   CLOUDY    15   7  70 NW7       30.11R WCI   5
N.P. DOWNTOWN    N/A     18  11  72 CALM        N/A
N.P. SOUTHEAST   N/A     18  10  69 CALM        N/A
N.P. HILLCREST   N/A     17  11  75 NW8         N/A  WCI   7
$$

...SOME OBSERVATIONS FROM AROUND THE REGION...

CITY           SKY/WX    TMP DP  RH WIND       PRES   REMARKS
LARAMIE        CLOUDY     7   4  87 S3        29.90R
CHEYENNE       CLOUDY    12   8  84 SW8       29.96R WCI   0
DENVER         CLOUDY    22  14  71 E7        30.00R WCI  13
AKRON          CLOUDY    21  15  78 NW5       30.04R WCI  15
SCOTTSBLUFF    CLOUDY    16  12  84 CALM      30.05S
RAPID CITY     CLOUDY    19  14  81 S6        30.05F WCI  11
BISMARCK       CLOUDY    26  17  68 W3        30.12S
PIERRE         CLEAR     20  12  71 W7        30.12R WCI  11
SIOUX FALLS    MOCLDY    23  15  71 N21       30.01R WCI   8
OMAHA          MOCLDY    25  15  66 NW17      29.99R WCI  12
GRAND ISLAND   CLEAR     21  14  74 NW15      30.08R WCI   8
KANSAS CITY    FLURRIES  27  21  78 NW22G30   29.98R WCI  13
WICHITA        PTCLDY    29  18  63 N18G26    30.09R WCI  16
OKLAHOMA CITY  PTCLDY    40  21  46 N16G25    30.07R WCI  31
DALLAS         CLEAR     55  30  38 NW17      29.99R
AMARILLO       CLEAR     29  14  53 NE12      30.03R WCI  19
DODGE CITY     CLEAR     27  13  55 N10       30.09R WCI  17
HAYS           CLOUDY    26  16  65 N13       30.13R WCI  15
GOODLAND       CLOUDY    20  16  84 N8        30.07R WCI  10
$$




USA.gov is the U.S. government's official web portal to all federal, state and local government web resources and services.